Weather History for Alykel, Russia

Change the Weather History Date:

Wednesday, April 25, 2012

  Actual Average Record
Temperature  
Mean Temperature -2 °F -  
Max Temperature 1 °F - - ()
Min Temperature -5 °F - - ()
Degree Days  
Heating Degree Days 66    
Moisture  
Dew Point -4 °F    
Average Humidity 87    
Maximum Humidity 92    
Minimum Humidity 85    
Precipitation  
Precipitation 0.00 in - - ()
Sea Level Pressure  
Sea Level Pressure 30.21 in    
Wind  
Wind Speed 25 mph ()    
Max Wind Speed 34 mph    
Max Gust Speed 40 mph    
Visibility 0.3 miles    
Events Snow    
T = Trace of Precipitation, MM = Missing Value Source: Averaged Metar Reports

Daily Weather History Graph

Daily Weather History Graph

Search for Another Location

Airport:

Trip Planner

Search our weather history database for the weather conditions in past years. The results will help you decide how hot, cold, wet, or windy it might be!

Date:

Astronomy

Apr. 25, 2012 Rise Set
Actual Time 5:22 AM KRAT 10:58 PM KRAT
Civil Twilight 3:38 AM KRAT 12:48 AM KRAT
Nautical Twilight Sun does not rise Sun does not rise
Astronomical Twilight Sun does not rise Sun does not rise
Moon No Moon Rise No Moon Set
Length of Visible Light 21h 09m
Length of Day
17h 36m
Waxing Crescent, 13% of the Moon is Illuminated
Apr 25
Waxing Crescent
Apr 29
First Quarter
May 6
Full
May 13
Last Quarter
May 21
New

Hourly Weather History & Observations

Time (KRAT) Temp. Windchill Dew Point Humidity Pressure Visibility Wind Dir Wind Speed Gust Speed Precip Events Conditions
12:00 AM 1.4 °F -22.9 °F -2.2 °F 85% 30.12 in 0.2 mi NNE 26.8 mph 33.6 mph N/A Snow Low Drifting Snow
1:00 AM -0.4 °F -24.5 °F -4.0 °F 85% 30.12 in 0.3 mi NNE 24.6 mph 29.1 mph N/A Snow Low Drifting Snow
2:00 AM -0.4 °F -25.3 °F -2.2 °F 92% 30.12 in 0.2 mi NNE 26.8 mph 31.3 mph N/A Snow Low Drifting Snow
3:00 AM -0.4 °F -26.8 °F -4.0 °F 85% 30.12 in 0.2 mi NNE 31.3 mph 38.0 mph N/A Snow Heavy Blowing Snow
4:00 AM -2.2 °F -29.3 °F -4.0 °F 92% 30.12 in 0.2 mi NNE 31.3 mph 35.8 mph N/A Snow Heavy Blowing Snow
4:30 AM -2.2 °F -26.9 °F -5.8 °F 85% 30.12 in 0.2 mi NNE 24.6 mph 29.1 mph N/A Snow Low Drifting Snow
5:00 AM -2.2 °F -27.7 °F -5.8 °F 85% 30.12 in 0.4 mi NNE 26.8 mph 31.3 mph N/A Snow Low Drifting Snow
5:30 AM -2.2 °F -27.7 °F -5.8 °F 85% 30.15 in 0.4 mi NNE 26.8 mph 31.3 mph N/A Snow Low Drifting Snow
6:00 AM -2.2 °F -27.7 °F -5.8 °F 85% 30.15 in 0.2 mi North 26.8 mph 31.3 mph N/A Snow Low Drifting Snow
6:30 AM -4.0 °F -31.0 °F -5.8 °F 92% 30.15 in 0.2 mi North 29.1 mph 35.8 mph N/A Snow Low Drifting Snow
7:00 AM -4.0 °F -27.3 °F -7.6 °F 85% 30.12 in 0.4 mi NNE 20.1 mph 26.8 mph N/A Snow Low Drifting Snow
7:30 AM -4.0 °F -28.3 °F -7.6 °F 85% 30.15 in 0.4 mi NNE 22.4 mph 26.8 mph N/A Snow Low Drifting Snow
8:00 AM -4.0 °F -29.3 °F -7.6 °F 85% 30.12 in 0.3 mi North 24.6 mph 29.1 mph N/A Snow Low Drifting Snow
8:30 AM -4.0 °F -30.1 °F -7.6 °F 85% 30.12 in 0.2 mi NNE 26.8 mph 31.3 mph N/A Snow Low Drifting Snow
9:00 AM -4.0 °F -32.5 °F -5.8 °F 92% 30.15 in 0.2 mi North 33.6 mph 38.0 mph N/A Snow Low Drifting Snow
9:30 AM -2.2 °F -28.5 °F -5.8 °F 85% 30.15 in 0.3 mi North 29.1 mph 33.6 mph N/A Snow Low Drifting Snow
10:00 AM -2.2 °F -27.7 °F -5.8 °F 85% 30.15 in 0.2 mi North 26.8 mph 33.6 mph N/A Snow Low Drifting Snow
10:30 AM -0.4 °F -26.1 °F -4.0 °F 85% 30.15 in 0.3 mi NNE 29.1 mph 33.6 mph N/A Snow Low Drifting Snow
11:00 AM -0.4 °F -26.8 °F -4.0 °F 85% 30.15 in 0.2 mi NNE 31.3 mph 35.8 mph N/A Snow Low Drifting Snow
11:30 AM -0.4 °F -27.5 °F -4.0 °F 85% 30.18 in 0.3 mi NNE 33.6 mph 38.0 mph N/A Snow Low Drifting Snow
12:00 PM -0.4 °F -26.1 °F -4.0 °F 85% 30.18 in 0.3 mi NNE 29.1 mph 33.6 mph N/A Snow Low Drifting Snow
12:30 PM -0.4 °F -26.1 °F -4.0 °F 85% 30.18 in 0.3 mi NNE 29.1 mph 33.6 mph N/A Snow Low Drifting Snow
1:00 PM -0.4 °F -24.5 °F -2.2 °F 92% 30.18 in 0.4 mi NNE 24.6 mph 31.3 mph N/A Snow Low Drifting Snow
1:30 PM 1.4 °F -24.4 °F -2.2 °F 85% 30.21 in 0.3 mi NNE 31.3 mph 33.6 mph N/A Snow Low Drifting Snow
2:00 PM 1.4 °F -25.0 °F -2.2 °F 85% 30.21 in 0.2 mi NNE 33.6 mph 40.3 mph N/A Snow Low Drifting Snow
2:30 PM 1.4 °F -25.0 °F -2.2 °F 85% 30.24 in 0.2 mi North 33.6 mph 40.3 mph N/A Snow Low Drifting Snow
3:00 PM 1.4 °F -25.0 °F -2.2 °F 85% 30.21 in 0.2 mi NNE 33.6 mph 38.0 mph N/A Snow Low Drifting Snow
3:30 PM 1.4 °F -25.0 °F -0.4 °F 92% 30.24 in 0.2 mi NNE 33.6 mph 38.0 mph N/A Snow Low Drifting Snow
4:00 PM 1.4 °F -24.4 °F -0.4 °F 92% 30.24 in 0.2 mi North 31.3 mph 35.8 mph N/A Snow Low Drifting Snow
4:30 PM 1.4 °F -22.9 °F -0.4 °F 92% 30.24 in 0.2 mi NNE 26.8 mph 31.3 mph N/A Snow Low Drifting Snow
5:00 PM 1.4 °F -22.9 °F -0.4 °F 92% 30.27 in 0.2 mi NNE 26.8 mph 31.3 mph N/A Snow Low Drifting Snow
5:30 PM 1.4 °F -23.7 °F -0.4 °F 92% 30.27 in 0.2 mi NNE 29.1 mph 35.8 mph N/A Snow Low Drifting Snow
6:00 PM 1.4 °F -22.9 °F -0.4 °F 92% 30.30 in 0.3 mi NNE 26.8 mph 33.6 mph N/A Snow Low Drifting Snow
6:30 PM 1.4 °F -22.9 °F -2.2 °F 85% 30.30 in 0.2 mi NNE 26.8 mph 31.3 mph N/A Snow Low Drifting Snow
7:00 PM 1.4 °F -21.2 °F -2.2 °F 85% 30.30 in 0.2 mi NNE 22.4 mph 26.8 mph N/A Snow Low Drifting Snow
7:30 PM 1.4 °F -22.1 °F -2.2 °F 85% 30.30 in 0.2 mi NNE 24.6 mph 31.3 mph N/A Snow Low Drifting Snow
8:00 PM -0.4 °F -25.3 °F -2.2 °F 92% 30.30 in 0.3 mi North 26.8 mph 31.3 mph N/A Snow Low Drifting Snow
8:30 PM -0.4 °F -25.3 °F -4.0 °F 85% 30.30 in - North 26.8 mph 29.1 mph N/A Snow Low Drifting Snow
9:00 PM -2.2 °F -28.5 °F -4.0 °F 92% 30.30 in 0.2 mi North 29.1 mph 33.6 mph N/A Snow Low Drifting Snow
9:30 PM -2.2 °F -27.7 °F -5.8 °F 85% 30.30 in 0.3 mi North 26.8 mph 29.1 mph N/A Snow Low Drifting Snow
10:00 PM -2.2 °F -27.7 °F -5.8 °F 85% 30.30 in 0.6 mi NNE 26.8 mph 31.3 mph N/A Snow Low Drifting Snow
10:30 PM -4.0 °F -29.3 °F -7.6 °F 85% 30.30 in 0.6 mi North 24.6 mph 29.1 mph N/A Snow Low Drifting Snow
11:00 PM -4.0 °F -30.1 °F -7.6 °F 85% 30.33 in 0.5 mi North 26.8 mph 31.3 mph N/A Snow Low Drifting Snow
11:30 PM -5.8 °F -31.7 °F -7.6 °F 92% 30.33 in 0.3 mi NNE 24.6 mph 31.3 mph N/A Snow Low Drifting Snow